Flag for Switzerland Weather past 2 weeks in Thônex, Geneva, Switzerland

Now
46 °F

Sprinkles. Partly cloudy.


Feels Like: 42 °F
Forecast: 37 / 49 °F
Wind: 8 mph from Southwest

Location: Geneva Cointrin Airport

Current Time: Mar 2, 2015 at 1:21:17 AM

Latest Report: Mar 2, 2015 at 12:50 AM


Visibility: N/A

Pressure: 29.92 "Hg

Humidity: 93%

Dew point: 45 °F

Location of ThônexLocation

Historic Weather in Thônex — Graph

°F

Thônex temperature yesterday

Maximum temperature yesterday: 46 °F (at 2:50 PM)
Minimum temperature yesterday: 32 °F (at 12:20 AM)
Average temperature yesterday: 42 °F

Past Weeks' High & Low Weather Summary

 TemperatureHumidityPressure
High54 °F (Feb 20, 1:50 PM)100% (Feb 15, 12:20 AM)30.63 "Hg (Feb 15, 12:20 AM)
Low27 °F (Feb 20, 4:20 AM)26% (Feb 20, 2:20 PM)29.59 "Hg (Feb 21, 7:20 AM)
Average38 °F82%30.04 "Hg
* Reported Feb 15 12:20 AM — Mar 2 12:20 AM, Thônex, Weather by CustomWeather, © 2015

Note: Actual official high and low records may vary slightly from our data, if they occured in-between our weather recording intervals... More about our weather records

Advertising

Thônex weather history for previous 24 hours

 ConditionsComfort  
Time TempWeatherWind HumidityBarometerVisibility
12:20 AM
Mon, Mar 2
46 °FSprinkles. Partly cloudy.10 mph93%29.92 "Hg5 mi
11:50 PM
Sun, Mar 1
46 °FSprinkles. Partly cloudy.9 mph93%29.92 "HgN/A
11:20 PM46 °FScattered showers. Partly cloudy.10 mph93%29.92 "HgN/A
10:50 PM46 °FPartly cloudy.9 mph93%29.92 "HgN/A
10:20 PM46 °FPartly cloudy.8 mph93%29.95 "HgN/A
9:50 PM46 °FScattered showers. Partly cloudy.10 mph93%29.95 "HgN/A
9:20 PM46 °FSprinkles. Partly cloudy.10 mph93%29.95 "HgN/A
8:20 PM45 °FPartly cloudy.6 mph93%29.95 "HgN/A
7:50 PM46 °FPartly cloudy.13 mph93%29.95 "HgN/A
7:20 PM46 °FScattered showers. Partly cloudy.8 mph93%29.98 "HgN/A
6:50 PM46 °FPartly cloudy.8 mph93%29.95 "HgN/A
6:20 PM46 °FBroken clouds.10 mph93%29.95 "HgN/A
5:50 PM46 °FSprinkles. Partly sunny.9 mph93%29.95 "HgN/A
5:20 PM46 °FPartly sunny.9 mph93%29.95 "HgN/A
4:50 PM46 °FScattered showers. Broken clouds.12 mph93%29.95 "HgN/A
4:20 PM46 °FPartly sunny.12 mph93%29.95 "HgN/A
3:50 PM46 °FBroken clouds.14 mph87%29.95 "HgN/A
3:20 PM46 °FBroken clouds.13 mph87%29.95 "HgN/A
2:50 PM46 °FPartly sunny.13 mph87%29.98 "HgN/A
2:20 PM45 °FBroken clouds.10 mph93%29.98 "HgN/A
1:50 PM43 °FDrizzle. Broken clouds.9 mph100%29.98 "HgN/A
1:20 PM43 °FDrizzle. More clouds than sun.9 mph93%30.01 "Hg5 mi
12:50 PM43 °FRain showers. Partly sunny.6 mph93%30.01 "Hg4 mi
12:20 PM43 °FBroken clouds.12 mph93%30.01 "HgN/A
11:50 AM41 °FMore clouds than sun.10 mph100%30.01 "HgN/A
11:20 AM41 °FLight rain. Broken clouds.9 mph93%30.04 "Hg4 mi
10:50 AM41 °FLight rain. More clouds than sun.8 mph93%30.04 "Hg4 mi
10:20 AM41 °FLight rain. Fog.5 mph93%30.04 "Hg2 mi
9:50 AM39 °FLight rain. Fog.5 mph100%30.04 "Hg3 mi
9:20 AM39 °FLight rain. Fog.6 mph100%30.04 "Hg3 mi
8:50 AM39 °FRain. Fog.7 mph93%30.04 "Hg3 mi
8:20 AM37 °FRain. Fog.7 mph100%30.04 "Hg2 mi
7:50 AM37 °FRain. More clouds than sun.6 mph100%30.01 "Hg4 mi
7:20 AM37 °FRain. Low clouds.6 mph93%30.01 "Hg4 mi
6:50 AM37 °FLight rain. Passing clouds.3 mph93%30.01 "Hg6 mi
6:20 AM39 °FLight rain. Partly cloudy.8 mph81%30.01 "HgN/A
5:50 AM37 °FLight rain. Passing clouds.7 mph93%30.01 "HgN/A
5:20 AM37 °FLight rain. Overcast.9 mph87%30.01 "HgN/A
4:20 AM39 °FLight rain. Passing clouds.8 mph75%30.01 "HgN/A
3:50 AM39 °FPassing clouds.12 mph75%30.01 "HgN/A
3:20 AM37 °FPassing clouds.8 mph81%30.01 "HgN/A
1:50 AM36 °FClear.3 mph81%30.04 "Hg10 mi
1:20 AM32 °FClear.1 mph93%30.04 "Hg10 mi
Weather by CustomWeather, © 2015

See weather overviewHow to use our weather pages